{"data":{"norad_id":55383,"intl_designator":"2023-013BE","name":"STARLINK-5531","alt_names":[],"object_type":"PAYLOAD","status":"ACTIVE","operator":null,"country":"US","launch_date":"2023-01-26","launch_site_code":"AFETR","launch_vehicle":null,"mission":null,"orbit_class":"UNKNOWN","rcs_meters":null,"size_class":null,"mass_kg":null,"dimensions":null,"purposes":["comms"],"wikipedia_slug":null,"has_3d_model":false,"image_url":null,"decayed_at":null,"tle_current":{"epoch":"2026-09-20T11:31:36.115968Z","epoch_age_seconds":98416,"freshness":"FRESH","line1":"1 55383U 23013BE  26263.48027912  .00000952  00000+0  44116-4 0  9990","line2":"2 55383  43.0041 268.6519 0001588 270.5289  89.5381 15.27587025201638","mean_motion":15.27587025,"eccentricity":0.0001588,"inclination_deg":43.0041,"raan_deg":268.6519,"arg_perigee_deg":270.5289,"mean_anomaly_deg":89.5381,"bstar":4.4116e-5,"rev_number":20163,"period_min":94.266315203875,"perigee_km":481.93850773139,"apogee_km":484.11761375468,"semimajor_km":6861.165060743,"source":"CELESTRAK","updated_at":"2026-09-21T09:00:33.212227Z"}}}